Data No, UTC Date,UTC Time,Latitude,Longitude,Course(deg),Temp(degC),Sal(psu)
722,2018/10/3,12:01,35-35.76N,139-47.14E,206,22.648,24.5726
723,2018/10/3,12:02,35-35.57N,139-47.09E,184,22.606,25.6828
724,2018/10/3,12:03,35-35.36N,139-47.12E,169,22.61,25.2515
725,2018/10/3,12:04,35-35.17N,139-47.23E,146,22.557,23.08
726,2018/10/3,12:05,35-35.02N,139-47.42E,128,22.548,22.8595
727,2018/10/3,12:06,35-34.88N,139-47.64E,126,22.6,21.2408
728,2018/10/3,12:07,35-34.74N,139-47.87E,126,22.614,21.9816
729,2018/10/3,12:08,35-34.60N,139-48.10E,126,22.643,24.8341
730,2018/10/3,12:09,35-34.46N,139-48.33E,126,22.641,26.1905
731,2018/10/3,12:10,35-34.32N,139-48.57E,126,22.656,27.1872
732,2018/10/3,12:11,35-34.17N,139-48.81E,127,22.68,27.7107
733,2018/10/3,12:12,35-34.01N,139-49.06E,126,22.686,27.8334
734,2018/10/3,12:13,35-33.84N,139-49.33E,126,22.675,27.9007
735,2018/10/3,12:14,35-33.67N,139-49.61E,127,22.678,27.9461
736,2018/10/3,12:15,35-33.50N,139-49.89E,126,22.657,27.9153
737,2018/10/3,12:16,35-33.33N,139-50.19E,126,22.672,28.1209
738,2018/10/3,12:17,35-33.09N,139-50.40E,152,22.295,28.6367
739,2018/10/3,12:18,35-32.83N,139-50.54E,154,22.563,28.6743
740,2018/10/3,12:19,35-32.56N,139-50.70E,154,22.679,22.1343
741,2018/10/3,12:20,35-32.29N,139-50.86E,156,22.738,24.3804
742,2018/10/3,12:21,35-31.99N,139-50.97E,164,22.794,26.6084
743,2018/10/3,12:22,35-31.70N,139-51.07E,164,22.747,27.3326
744,2018/10/3,12:23,35-31.40N,139-51.17E,164,22.728,27.7518
745,2018/10/3,12:24,35-31.10N,139-51.27E,164,22.761,28.2404
746,2018/10/3,12:25,35-30.80N,139-51.37E,164,22.742,28.6314
747,2018/10/3,12:26,35-30.50N,139-51.47E,164,22.718,28.8101
748,2018/10/3,12:27,35-30.19N,139-51.57E,166,22.683,29.0027
749,2018/10/3,12:28,35-29.87N,139-51.60E,181,22.655,29.093
750,2018/10/3,12:29,35-29.57N,139-51.48E,204,22.638,29.1452
751,2018/10/3,12:30,35-29.32N,139-51.26E,218,22.628,28.8535
752,2018/10/3,12:31,35-29.08N,139-51.02E,219,22.644,28.7005
753,2018/10/3,12:32,35-28.84N,139-50.77E,220,22.629,28.9731
754,2018/10/3,12:33,35-28.60N,139-50.51E,224,22.696,29.3184
755,2018/10/3,12:34,35-28.40N,139-50.19E,235,22.634,29.4589
756,2018/10/3,12:35,35-28.23N,139-49.87E,234,22.656,29.3749
757,2018/10/3,12:36,35-28.04N,139-49.55E,233,22.661,28.9422
758,2018/10/3,12:37,35-27.85N,139-49.23E,235,22.647,29.1866
759,2018/10/3,12:38,35-27.68N,139-48.90E,237,22.666,29.3697
760,2018/10/3,12:39,35-27.49N,139-48.57E,235,22.666,29.2888
761,2018/10/3,12:40,35-27.30N,139-48.24E,234,22.683,29.2049
762,2018/10/3,12:41,35-27.12N,139-47.91E,235,22.659,29.141
763,2018/10/3,12:42,35-26.94N,139-47.58E,236,22.636,29.1512
764,2018/10/3,12:43,35-26.76N,139-47.25E,236,22.626,28.9595
765,2018/10/3,12:44,35-26.58N,139-46.91E,234,22.632,28.999
766,2018/10/3,12:45,35-26.39N,139-46.59E,235,22.647,28.9078
767,2018/10/3,12:46,35-26.21N,139-46.26E,235,22.569,28.7973
768,2018/10/3,12:47,35-26.03N,139-45.93E,237,22.536,28.4384
769,2018/10/3,12:48,35-25.86N,139-45.59E,236,22.553,27.649
770,2018/10/3,12:49,35-25.67N,139-45.26E,236,22.608,26.9283
771,2018/10/3,12:50,35-25.49N,139-44.92E,236,22.636,27.1306
772,2018/10/3,12:51,35-25.31N,139-44.60E,236,22.626,27.1855
773,2018/10/3,12:52,35-25.14N,139-44.27E,236,22.593,27.0238
774,2018/10/3,12:53,35-24.96N,139-43.93E,236,22.654,26.7917
775,2018/10/3,12:54,35-24.78N,139-43.61E,234,22.715,26.501
776,2018/10/3,12:55,35-24.58N,139-43.29E,231,22.669,26.6301
777,2018/10/3,12:56,35-24.33N,139-43.07E,206,22.596,26.8593
778,2018/10/3,12:57,35-24.05N,139-42.93E,202,22.608,26.8852
779,2018/10/3,12:58,35-23.76N,139-42.78E,202,22.599,25.7102
780,2018/10/3,12:59,35-23.46N,139-42.63E,202,22.558,26.3954
781,2018/10/3,13:00,35-23.17N,139-42.48E,202,22.517,26.6966
782,2018/10/3,13:01,35-22.86N,139-42.36E,192,22.547,26.9399
783,2018/10/3,13:02,35-22.56N,139-42.37E,176,22.501,27.0821
784,2018/10/3,13:03,35-22.25N,139-42.40E,174,22.556,27.1327
785,2018/10/3,13:04,35-21.93N,139-42.44E,174,22.525,26.9488
786,2018/10/3,13:05,35-21.62N,139-42.47E,175,22.514,27.1619
787,2018/10/3,13:06,35-21.29N,139-42.51E,174,22.493,27.5522
788,2018/10/3,13:07,35-20.97N,139-42.55E,174,22.492,27.6909
789,2018/10/3,13:08,35-20.68N,139-42.58E,174,22.512,27.9134
790,2018/10/3,13:09,35-20.42N,139-42.61E,174,22.496,28.165
791,2018/10/3,13:10,35-20.18N,139-42.64E,173,22.499,28.2767
792,2018/10/3,13:11,35-19.95N,139-42.67E,174,22.511,28.5161
793,2018/10/3,13:12,35-19.74N,139-42.73E,159,22.47,28.6208
794,2018/10/3,13:13,35-19.56N,139-42.86E,146,22.415,28.6617
795,2018/10/3,13:14,35-19.38N,139-43.01E,145,22.538,28.1538
796,2018/10/3,13:15,35-19.21N,139-43.16E,144,22.572,27.9185
797,2018/10/3,13:16,35-19.02N,139-43.32E,145,22.547,28.5955
798,2018/10/3,13:17,35-18.85N,139-43.47E,145,22.545,29.0139
799,2018/10/3,13:18,35-18.67N,139-43.62E,145,22.535,29.2085
800,2018/10/3,13:19,35-18.48N,139-43.77E,146,22.518,29.4116
801,2018/10/3,13:20,35-18.30N,139-43.92E,146,22.541,29.5295
802,2018/10/3,13:21,35-18.11N,139-44.08E,145,22.527,29.6136
803,2018/10/3,13:22,35-17.92N,139-44.23E,145,22.514,29.6616
804,2018/10/3,13:23,35-17.74N,139-44.39E,145,22.487,29.5249
805,2018/10/3,13:24,35-17.55N,139-44.54E,145,22.523,29.5803
806,2018/10/3,13:25,35-17.37N,139-44.70E,144,22.463,29.6756
807,2018/10/3,13:26,35-17.18N,139-44.86E,143,22.446,29.7972
808,2018/10/3,13:27,35-17.01N,139-45.02E,143,22.438,29.8389
809,2018/10/3,13:28,35-16.83N,139-45.17E,143,22.426,29.7542
810,2018/10/3,13:29,35-16.65N,139-45.34E,143,22.378,29.6471
811,2018/10/3,13:30,35-16.47N,139-45.49E,144,22.37,29.7248
812,2018/10/3,13:31,35-16.29N,139-45.65E,144,22.361,29.6982
813,2018/10/3,13:32,35-16.11N,139-45.81E,144,22.372,29.718
814,2018/10/3,13:33,35-15.93N,139-45.96E,144,22.361,29.8522
815,2018/10/3,13:34,35-15.73N,139-46.12E,145,22.362,29.9062
816,2018/10/3,13:35,35-15.54N,139-46.27E,151,22.361,30.0868
817,2018/10/3,13:36,35-15.33N,139-46.37E,163,22.32,30.1382
818,2018/10/3,13:37,35-15.09N,139-46.40E,176,22.312,29.8629
819,2018/10/3,13:38,35-14.87N,139-46.41E,177,22.338,29.0703
820,2018/10/3,13:39,35-14.65N,139-46.43E,177,22.347,28.9852
821,2018/10/3,13:40,35-14.43N,139-46.44E,177,22.355,29.6714
822,2018/10/3,13:41,35-14.21N,139-46.44E,179,22.353,30.2039
823,2018/10/3,13:42,35-13.99N,139-46.44E,179,22.37,30.4898
824,2018/10/3,13:43,35-13.77N,139-46.44E,180,22.375,30.6575
825,2018/10/3,13:44,35-13.55N,139-46.44E,180,22.375,30.8101
826,2018/10/3,13:45,35-13.33N,139-46.44E,180,22.358,30.9795
827,2018/10/3,13:46,35-13.10N,139-46.43E,180,22.374,31.012
828,2018/10/3,13:47,35-12.87N,139-46.40E,189,22.35,30.9336
829,2018/10/3,13:48,35-12.62N,139-46.33E,194,22.358,31.0439
830,2018/10/3,13:49,35-12.36N,139-46.25E,194,22.351,30.86
831,2018/10/3,13:50,35-12.08N,139-46.16E,193,22.384,30.9186
832,2018/10/3,13:51,35-11.80N,139-46.07E,194,22.385,31.1711
833,2018/10/3,13:52,35-11.51N,139-45.97E,195,22.388,31.2394
834,2018/10/3,13:53,35-11.21N,139-45.87E,196,22.396,31.3204
835,2018/10/3,13:54,35-10.92N,139-45.77E,195,22.44,31.3203
836,2018/10/3,13:55,35-10.63N,139-45.67E,194,22.452,31.2911
837,2018/10/3,13:56,35-10.34N,139-45.58E,195,22.49,31.2893
838,2018/10/3,13:57,35-10.05N,139-45.48E,195,22.513,31.2876
839,2018/10/3,13:58,35-09.76N,139-45.38E,195,22.526,31.3627
840,2018/10/3,13:59,35-09.47N,139-45.27E,195,22.523,31.4127
841,2018/10/3,14:00,35-09.17N,139-45.18E,195,22.537,31.4212
842,2018/10/3,14:01,35-08.89N,139-45.08E,195,22.595,31.433
843,2018/10/3,14:02,35-08.60N,139-44.98E,195,22.634,31.5538
844,2018/10/3,14:03,35-08.31N,139-44.88E,196,22.676,31.6588
845,2018/10/3,14:04,35-08.02N,139-44.78E,195,22.767,31.8193
846,2018/10/3,14:05,35-07.72N,139-44.68E,195,22.835,31.854
847,2018/10/3,14:06,35-07.43N,139-44.59E,194,22.892,31.9696
848,2018/10/3,14:07,35-07.14N,139-44.49E,195,22.902,32.0571
849,2018/10/3,14:08,35-06.85N,139-44.39E,196,22.967,32.1423
850,2018/10/3,14:09,35-06.56N,139-44.28E,196,22.93,32.1965
851,2018/10/3,14:10,35-06.27N,139-44.18E,194,23.047,32.1953
852,2018/10/3,14:11,35-05.98N,139-44.09E,194,23.025,32.2569
853,2018/10/3,14:12,35-05.70N,139-43.99E,195,23.008,32.4059
854,2018/10/3,14:13,35-05.41N,139-43.89E,194,23.07,32.4368
855,2018/10/3,14:14,35-05.12N,139-43.81E,193,23.182,32.4786
856,2018/10/3,14:15,35-04.83N,139-43.73E,190,23.434,32.5852
857,2018/10/3,14:16,35-04.53N,139-43.69E,186,23.507,32.7448
858,2018/10/3,14:17,35-04.24N,139-43.65E,185,23.592,33.0091
859,2018/10/3,14:18,35-03.95N,139-43.62E,185,23.567,33.1243
860,2018/10/3,14:19,35-03.66N,139-43.58E,185,23.604,33.2096
861,2018/10/3,14:20,35-03.37N,139-43.55E,183,23.497,33.2248
862,2018/10/3,14:21,35-03.07N,139-43.53E,183,23.521,33.2304
863,2018/10/3,14:22,35-02.78N,139-43.50E,185,23.519,33.2386
864,2018/10/3,14:23,35-02.48N,139-43.47E,185,23.577,33.2015
865,2018/10/3,14:24,35-02.19N,139-43.44E,183,23.559,33.2061
866,2018/10/3,14:25,35-01.89N,139-43.42E,183,23.563,33.2376
867,2018/10/3,14:26,35-01.60N,139-43.39E,184,23.561,33.2834
868,2018/10/3,14:27,35-01.31N,139-43.35E,186,23.543,33.2935
869,2018/10/3,14:28,35-01.01N,139-43.31E,187,23.506,33.2961
870,2018/10/3,14:29,35-00.72N,139-43.26E,187,23.527,33.315
871,2018/10/3,14:30,35-00.43N,139-43.22E,186,23.657,33.3539
872,2018/10/3,14:31,35-00.15N,139-43.19E,184,23.617,33.4251
873,2018/10/3,14:32,34-59.86N,139-43.16E,185,23.63,33.5273
874,2018/10/3,14:33,34-59.56N,139-43.13E,183,23.553,33.5731
875,2018/10/3,14:34,34-59.28N,139-43.11E,184,23.556,33.6895
876,2018/10/3,14:35,34-58.99N,139-43.08E,182,23.621,33.7639
877,2018/10/3,14:36,34-58.69N,139-43.07E,180,23.739,33.7939
878,2018/10/3,14:37,34-58.39N,139-43.08E,176,23.787,33.7819
879,2018/10/3,14:38,34-58.10N,139-43.11E,176,23.907,33.7216
880,2018/10/3,14:39,34-57.80N,139-43.15E,170,23.983,33.6792
881,2018/10/3,14:40,34-57.51N,139-43.23E,164,24.053,33.6402
882,2018/10/3,14:41,34-57.22N,139-43.36E,159,24.092,33.6133
883,2018/10/3,14:42,34-56.94N,139-43.52E,152,24.106,33.5943
884,2018/10/3,14:43,34-56.66N,139-43.72E,149,24.116,33.5888
885,2018/10/3,14:44,34-56.38N,139-43.90E,151,24.061,33.5889
886,2018/10/3,14:45,34-56.10N,139-44.08E,153,24.076,33.5959
887,2018/10/3,14:46,34-55.81N,139-44.25E,154,24.129,33.6089
888,2018/10/3,14:47,34-55.51N,139-44.43E,153,24.14,33.6107
889,2018/10/3,14:48,34-55.22N,139-44.61E,152,24.173,33.6024
890,2018/10/3,14:49,34-54.93N,139-44.79E,153,24.193,33.6009
891,2018/10/3,14:50,34-54.64N,139-44.95E,155,24.173,33.6065
892,2018/10/3,14:51,34-54.34N,139-45.12E,155,24.143,33.611
893,2018/10/3,14:52,34-54.04N,139-45.28E,155,23.989,33.6154
894,2018/10/3,14:53,34-53.74N,139-45.44E,156,24.062,33.635
895,2018/10/3,14:54,34-53.44N,139-45.60E,155,23.803,33.6455
896,2018/10/3,14:55,34-53.15N,139-45.77E,153,23.905,33.6433
897,2018/10/3,14:56,34-52.85N,139-45.94E,155,23.653,33.6785
898,2018/10/3,14:57,34-52.54N,139-46.11E,156,23.427,33.6823
899,2018/10/3,14:58,34-52.23N,139-46.27E,156,23.215,33.714
900,2018/10/3,14:59,34-51.92N,139-46.45E,152,23.143,33.7542
901,2018/10/3,15:00,34-51.70N,139-46.71E,125,23.664,33.7891
902,2018/10/3,15:01,34-51.59N,139-47.05E,106,23.874,33.7983
903,2018/10/3,15:02,34-51.52N,139-47.42E,103,23.465,33.7229
904,2018/10/3,15:03,34-51.44N,139-47.79E,106,23.798,33.6949
905,2018/10/3,15:04,34-51.32N,139-48.16E,113,23.874,33.729
906,2018/10/3,15:05,34-51.19N,139-48.53E,111,23.781,33.6912
907,2018/10/3,15:06,34-51.07N,139-48.90E,111,23.84,33.6699
908,2018/10/3,15:07,34-50.96N,139-49.27E,109,23.547,33.6885
909,2018/10/3,15:08,34-50.87N,139-49.63E,107,23.149,33.6867
910,2018/10/3,15:09,34-50.77N,139-50.00E,107,22.922,33.7504
911,2018/10/3,15:10,34-50.67N,139-50.36E,108,22.798,33.8222
912,2018/10/3,15:11,34-50.57N,139-50.72E,108,22.69,33.8546
913,2018/10/3,15:12,34-50.48N,139-51.07E,108,22.723,33.8526
914,2018/10/3,15:13,34-50.38N,139-51.41E,108,22.714,33.853
915,2018/10/3,15:14,34-50.29N,139-51.76E,107,22.698,33.8387
916,2018/10/3,15:15,34-50.20N,139-52.11E,107,22.664,33.8268
917,2018/10/3,15:16,34-50.13N,139-52.46E,101,22.671,33.8317
918,2018/10/3,15:17,34-50.08N,139-52.81E,98,22.643,33.8336
919,2018/10/3,15:18,34-50.06N,139-53.17E,93,22.556,33.8315
920,2018/10/3,15:19,34-50.04N,139-53.52E,92,22.417,33.8287
921,2018/10/3,15:20,34-50.05N,139-53.88E,83,22.259,33.8198
922,2018/10/3,15:21,34-50.14N,139-54.20E,66,22.264,33.7936
923,2018/10/3,15:22,34-50.25N,139-54.53E,68,22.159,33.7828
924,2018/10/3,15:23,34-50.36N,139-54.85E,65,22.205,33.7774
925,2018/10/3,15:24,34-50.49N,139-55.19E,66,22.261,33.7816
926,2018/10/3,15:25,34-50.61N,139-55.53E,64,22.2,33.7988
927,2018/10/3,15:26,34-50.75N,139-55.86E,64,22.257,33.8195
928,2018/10/3,15:27,34-50.88N,139-56.20E,64,22.54,33.8357
929,2018/10/3,15:28,34-51.01N,139-56.54E,65,23.058,33.8232
930,2018/10/3,15:29,34-51.13N,139-56.89E,66,23.197,33.8017
931,2018/10/3,15:30,34-51.26N,139-57.24E,65,23.272,33.7899
932,2018/10/3,15:31,34-51.40N,139-57.59E,64,23.424,33.8095
933,2018/10/3,15:32,34-51.54N,139-57.94E,63,23.632,33.8301
934,2018/10/3,15:33,34-51.68N,139-58.28E,64,24.062,33.8465
935,2018/10/3,15:34,34-51.82N,139-58.64E,64,24.297,33.8452
936,2018/10/3,15:35,34-51.96N,139-58.99E,64,24.414,33.8392
937,2018/10/3,15:36,34-52.10N,139-59.35E,63,24.504,33.8294
938,2018/10/3,15:37,34-52.25N,139-59.70E,64,24.58,33.8252
939,2018/10/3,15:38,34-52.39N,140-00.05E,63,24.59,33.8192
940,2018/10/3,15:39,34-52.55N,140-00.41E,61,24.571,33.8119
941,2018/10/3,15:40,34-52.71N,140-00.75E,59,24.579,33.8099
942,2018/10/3,15:41,34-52.87N,140-01.09E,60,24.566,33.8106
943,2018/10/3,15:42,34-53.03N,140-01.43E,60,24.566,33.8113
944,2018/10/3,15:43,34-53.19N,140-01.77E,61,24.568,33.8169
945,2018/10/3,15:44,34-53.35N,140-02.12E,60,24.519,33.8225
946,2018/10/3,15:45,34-53.51N,140-02.46E,61,24.499,33.8289
947,2018/10/3,15:46,34-53.67N,140-02.81E,60,24.467,33.8328
948,2018/10/3,15:47,34-53.83N,140-03.15E,61,24.481,33.8362
949,2018/10/3,15:48,34-53.98N,140-03.50E,61,24.517,33.8414
950,2018/10/3,15:49,34-54.14N,140-03.84E,61,24.535,33.8486
951,2018/10/3,15:50,34-54.30N,140-04.19E,60,24.551,33.8539
952,2018/10/3,15:51,34-54.46N,140-04.53E,60,24.482,33.8576
953,2018/10/3,15:52,34-54.61N,140-04.88E,61,24.395,33.8607
954,2018/10/3,15:53,34-54.77N,140-05.22E,60,24.303,33.8542
955,2018/10/3,15:54,34-54.92N,140-05.55E,60,24.179,33.8398
956,2018/10/3,15:55,34-55.08N,140-05.88E,60,24.155,33.8185
957,2018/10/3,15:56,34-55.23N,140-06.22E,60,24.065,33.7951
958,2018/10/3,15:57,34-55.39N,140-06.56E,61,24.006,33.7815
959,2018/10/3,15:58,34-55.54N,140-06.89E,61,23.891,33.7697
960,2018/10/3,15:59,34-55.68N,140-07.22E,62,23.837,33.7626
961,2018/10/3,16:00,34-55.83N,140-07.55E,60,23.631,33.7613
962,2018/10/3,16:01,34-55.98N,140-07.87E,61,22.936,33.7828
963,2018/10/3,16:02,34-56.11N,140-08.19E,63,22.677,33.7989
964,2018/10/3,16:03,34-56.24N,140-08.50E,64,22.473,33.7762
965,2018/10/3,16:04,34-56.36N,140-08.81E,64,22.433,33.7648
966,2018/10/3,16:05,34-56.48N,140-09.12E,65,22.322,33.7581
967,2018/10/3,16:06,34-56.59N,140-09.43E,67,22.417,33.7469
968,2018/10/3,16:07,34-56.70N,140-09.73E,63,22.397,33.7432
969,2018/10/3,16:08,34-56.83N,140-10.03E,61,22.249,33.7226
970,2018/10/3,16:09,34-56.97N,140-10.32E,59,22.115,33.7304
971,2018/10/3,16:10,34-57.12N,140-10.60E,57,21.941,33.7317
972,2018/10/3,16:11,34-57.26N,140-10.89E,59,21.826,33.7326
973,2018/10/3,16:12,34-57.41N,140-11.18E,58,21.844,33.7436
974,2018/10/3,16:13,34-57.56N,140-11.47E,57,21.87,33.7157
975,2018/10/3,16:14,34-57.71N,140-11.74E,56,21.727,33.7022
976,2018/10/3,16:15,34-57.86N,140-12.01E,55,21.746,33.6947
977,2018/10/3,16:16,34-58.01N,140-12.29E,57,21.743,33.6887
978,2018/10/3,16:17,34-58.15N,140-12.57E,58,21.772,33.6884
979,2018/10/3,16:18,34-58.29N,140-12.83E,58,21.912,33.6912
980,2018/10/3,16:19,34-58.42N,140-13.10E,58,21.99,33.6863
981,2018/10/3,16:20,34-58.56N,140-13.36E,58,21.973,33.6654
982,2018/10/3,16:21,34-58.69N,140-13.63E,57,21.98,33.6536
983,2018/10/3,16:22,34-58.83N,140-13.88E,57,21.969,33.6522
984,2018/10/3,16:23,34-58.96N,140-14.15E,58,22,33.6559
985,2018/10/3,16:24,34-59.10N,140-14.41E,58,22.081,33.6612
986,2018/10/3,16:25,34-59.22N,140-14.66E,59,22.171,33.6567
987,2018/10/3,16:26,34-59.34N,140-14.93E,59,22.321,33.6502
988,2018/10/3,16:27,34-59.47N,140-15.19E,60,22.416,33.6416
989,2018/10/3,16:28,34-59.59N,140-15.45E,60,22.496,33.6236
990,2018/10/3,16:29,34-59.71N,140-15.70E,59,22.589,33.6108
991,2018/10/3,16:30,34-59.84N,140-15.96E,59,22.605,33.5978
992,2018/10/3,16:31,34-59.96N,140-16.22E,60,22.686,33.5837
993,2018/10/3,16:32,35-00.08N,140-16.48E,59,22.675,33.5777
994,2018/10/3,16:33,35-00.20N,140-16.74E,60,22.679,33.5731
995,2018/10/3,16:34,35-00.33N,140-17.00E,59,22.734,33.5843
996,2018/10/3,16:35,35-00.45N,140-17.26E,59,22.828,33.5912
997,2018/10/3,16:36,35-00.58N,140-17.52E,59,22.931,33.5669
998,2018/10/3,16:37,35-00.70N,140-17.78E,60,23.095,33.5377
999,2018/10/3,16:38,35-00.82N,140-18.04E,61,23.204,33.5113
1000,2018/10/3,16:39,35-00.93N,140-18.30E,61,23.255,33.477
1001,2018/10/3,16:40,35-01.06N,140-18.56E,59,23.257,33.455
1002,2018/10/3,16:41,35-01.18N,140-18.82E,59,23.262,33.4448
1003,2018/10/3,16:42,35-01.31N,140-19.08E,59,23.254,33.441
1004,2018/10/3,16:43,35-01.43N,140-19.35E,61,23.313,33.4323
1005,2018/10/3,16:44,35-01.55N,140-19.61E,61,23.321,33.4226
1006,2018/10/3,16:45,35-01.67N,140-19.87E,61,23.339,33.4147
1007,2018/10/3,16:46,35-01.79N,140-20.13E,61,23.368,33.4112
1008,2018/10/3,16:47,35-01.91N,140-20.40E,61,23.398,33.4015
1009,2018/10/3,16:48,35-02.02N,140-20.67E,60,23.448,33.3926
1010,2018/10/3,16:49,35-02.15N,140-20.93E,63,23.457,33.3961
1011,2018/10/3,16:50,35-02.25N,140-21.21E,64,23.48,33.4078
1012,2018/10/3,16:51,35-02.36N,140-21.47E,62,23.346,33.4213
1013,2018/10/3,16:52,35-02.48N,140-21.74E,62,23.218,33.4318
1014,2018/10/3,16:53,35-02.59N,140-22.01E,63,23.335,33.4743
1015,2018/10/3,16:54,35-02.70N,140-22.28E,63,23.344,33.4802
1016,2018/10/3,16:55,35-02.81N,140-22.56E,62,23.325,33.469
1017,2018/10/3,16:56,35-02.93N,140-22.83E,62,23.398,33.4698
1018,2018/10/3,16:57,35-03.03N,140-23.11E,64,23.432,33.4772
1019,2018/10/3,16:58,35-03.16N,140-23.37E,58,23.41,33.4606
1020,2018/10/3,16:59,35-03.28N,140-23.64E,59,23.429,33.4312
1021,2018/10/3,17:00,35-03.41N,140-23.90E,59,23.429,33.4529
1022,2018/10/3,17:01,35-03.55N,140-24.17E,58,23.454,33.4611
1023,2018/10/3,17:02,35-03.69N,140-24.43E,56,23.152,33.4673
1024,2018/10/3,17:03,35-03.82N,140-24.69E,56,23.014,33.4678
1025,2018/10/3,17:04,35-03.96N,140-24.95E,56,23.103,33.5339
1026,2018/10/3,17:05,35-04.10N,140-25.21E,57,23.345,33.5668
1027,2018/10/3,17:06,35-04.24N,140-25.48E,57,23.418,33.5539
1028,2018/10/3,17:07,35-04.39N,140-25.76E,58,23.465,33.4859
1029,2018/10/3,17:08,35-04.53N,140-26.03E,56,23.494,33.4623
1030,2018/10/3,17:09,35-04.68N,140-26.30E,57,23.494,33.4691
1031,2018/10/3,17:10,35-04.82N,140-26.57E,57,23.517,33.4838
1032,2018/10/3,17:11,35-04.97N,140-26.84E,56,23.574,33.5031
1033,2018/10/3,17:12,35-05.11N,140-27.11E,56,23.598,33.5392
1034,2018/10/3,17:13,35-05.26N,140-27.38E,56,23.63,33.5873
1035,2018/10/3,17:14,35-05.41N,140-27.66E,56,23.634,33.6321
1036,2018/10/3,17:15,35-05.56N,140-27.93E,55,23.624,33.6639
1037,2018/10/3,17:16,35-05.72N,140-28.20E,56,23.616,33.6824
1038,2018/10/3,17:17,35-05.87N,140-28.48E,56,23.639,33.691
1039,2018/10/3,17:18,35-06.02N,140-28.76E,56,23.663,33.7079
1040,2018/10/3,17:19,35-06.18N,140-29.04E,55,23.691,33.7496
1041,2018/10/3,17:20,35-06.33N,140-29.31E,55,23.666,33.7821
1042,2018/10/3,17:21,35-06.49N,140-29.59E,56,23.685,33.7905
1043,2018/10/3,17:22,35-06.64N,140-29.86E,55,23.763,33.7707
1044,2018/10/3,17:23,35-06.80N,140-30.14E,55,23.833,33.781
1045,2018/10/3,17:24,35-06.95N,140-30.41E,55,23.848,33.821
1046,2018/10/3,17:25,35-07.11N,140-30.69E,55,23.841,33.8393
1047,2018/10/3,17:26,35-07.27N,140-30.97E,55,23.827,33.8489
1048,2018/10/3,17:27,35-07.43N,140-31.25E,54,23.795,33.8551
1049,2018/10/3,17:28,35-07.58N,140-31.52E,55,23.804,33.8582
1050,2018/10/3,17:29,35-07.74N,140-31.79E,51,23.787,33.8625
1051,2018/10/3,17:30,35-07.95N,140-31.98E,32,23.817,33.865
1052,2018/10/3,17:31,35-08.18N,140-32.14E,30,23.828,33.8674
1053,2018/10/3,17:32,35-08.41N,140-32.31E,31,23.85,33.8664
1054,2018/10/3,17:33,35-08.64N,140-32.49E,32,23.862,33.8658
1055,2018/10/3,17:34,35-08.88N,140-32.67E,32,23.844,33.8634
1056,2018/10/3,17:35,35-09.10N,140-32.85E,34,23.826,33.8623
1057,2018/10/3,17:36,35-09.33N,140-33.04E,34,23.795,33.8627
1058,2018/10/3,17:37,35-09.56N,140-33.22E,33,23.819,33.8641
1059,2018/10/3,17:38,35-09.78N,140-33.40E,32,23.881,33.865
1060,2018/10/3,17:39,35-10.01N,140-33.59E,33,23.902,33.8621
1061,2018/10/3,17:40,35-10.24N,140-33.77E,33,23.837,33.8573
1062,2018/10/3,17:41,35-10.46N,140-33.95E,33,23.806,33.8509
1063,2018/10/3,17:42,35-10.69N,140-34.13E,33,23.82,33.8426
1064,2018/10/3,17:43,35-10.91N,140-34.31E,32,23.804,33.8353
1065,2018/10/3,17:44,35-11.14N,140-34.49E,33,23.595,33.8323
1066,2018/10/3,17:45,35-11.36N,140-34.66E,32,23.219,33.8199
1067,2018/10/3,17:46,35-11.59N,140-34.84E,33,23.186,33.8078
1068,2018/10/3,17:47,35-11.81N,140-35.02E,33,22.705,33.8088
1069,2018/10/3,17:48,35-12.04N,140-35.20E,33,22.58,33.8047
1070,2018/10/3,17:49,35-12.27N,140-35.38E,32,22.576,33.8105
1071,2018/10/3,17:50,35-12.49N,140-35.56E,32,22.63,33.8093
1072,2018/10/3,17:51,35-12.72N,140-35.74E,32,22.773,33.8037
1073,2018/10/3,17:52,35-12.96N,140-35.92E,32,22.912,33.7993
1074,2018/10/3,17:53,35-13.19N,140-36.10E,32,22.808,33.7987
1075,2018/10/3,17:54,35-13.41N,140-36.28E,32,22.613,33.8035
1076,2018/10/3,17:55,35-13.64N,140-36.46E,32,22.612,33.8272
1077,2018/10/3,17:56,35-13.87N,140-36.63E,32,22.707,33.8493
1078,2018/10/3,17:57,35-14.10N,140-36.81E,32,22.755,33.8562
1079,2018/10/3,17:58,35-14.33N,140-36.99E,32,22.697,33.8554
1080,2018/10/3,17:59,35-14.55N,140-37.17E,32,22.64,33.8563
1081,2018/10/3,18:00,35-14.78N,140-37.34E,32,22.605,33.86
1082,2018/10/3,18:01,35-15.01N,140-37.52E,32,22.515,33.8641
1083,2018/10/3,18:02,35-15.25N,140-37.70E,31,22.591,33.8674
1084,2018/10/3,18:03,35-15.48N,140-37.88E,32,22.657,33.8669
1085,2018/10/3,18:04,35-15.71N,140-38.06E,32,22.54,33.8638
1086,2018/10/3,18:05,35-15.94N,140-38.24E,32,22.366,33.8614
1087,2018/10/3,18:06,35-16.16N,140-38.42E,33,22.426,33.8708
1088,2018/10/3,18:07,35-16.40N,140-38.60E,32,22.301,33.8822
1089,2018/10/3,18:08,35-16.63N,140-38.78E,33,22.272,33.8855
1090,2018/10/3,18:09,35-16.86N,140-38.96E,32,21.977,33.8919
1091,2018/10/3,18:10,35-17.08N,140-39.14E,33,21.697,33.8945
1092,2018/10/3,18:11,35-17.31N,140-39.32E,33,21.517,33.9116
1093,2018/10/3,18:12,35-17.53N,140-39.50E,32,21.306,33.9292
1094,2018/10/3,18:13,35-17.77N,140-39.68E,33,21.243,33.9436
1095,2018/10/3,18:14,35-17.99N,140-39.86E,32,21.193,33.9569
1096,2018/10/3,18:15,35-18.21N,140-40.04E,33,21.001,33.9621
1097,2018/10/3,18:16,35-18.44N,140-40.22E,33,21.111,33.9684
1098,2018/10/3,18:17,35-18.67N,140-40.40E,33,20.964,33.9748
1099,2018/10/3,18:18,35-18.89N,140-40.59E,33,20.839,33.9775
1100,2018/10/3,18:19,35-19.12N,140-40.77E,33,20.891,33.9798
1101,2018/10/3,18:20,35-19.34N,140-40.95E,32,20.823,33.9828
1102,2018/10/3,18:21,35-19.57N,140-41.13E,32,20.742,33.9862
1103,2018/10/3,18:22,35-19.80N,140-41.32E,32,20.587,33.9909
1104,2018/10/3,18:23,35-20.03N,140-41.50E,33,20.453,34.0004
1105,2018/10/3,18:24,35-20.26N,140-41.69E,33,20.368,34.0176
1106,2018/10/3,18:25,35-20.48N,140-41.87E,34,20.256,34.0325
1107,2018/10/3,18:26,35-20.70N,140-42.05E,33,20.649,34.0422
1108,2018/10/3,18:27,35-20.93N,140-42.23E,32,20.95,34.0381
1109,2018/10/3,18:28,35-21.15N,140-42.41E,33,21.153,33.9981
1110,2018/10/3,18:29,35-21.38N,140-42.59E,33,21.193,33.964
1111,2018/10/3,18:30,35-21.60N,140-42.77E,32,21.181,33.9381
1112,2018/10/3,18:31,35-21.82N,140-42.95E,32,21.086,33.9327
1113,2018/10/3,18:32,35-22.05N,140-43.13E,32,21.289,33.9372
1114,2018/10/3,18:33,35-22.28N,140-43.31E,32,21.501,33.9427
1115,2018/10/3,18:34,35-22.50N,140-43.49E,32,21.602,33.9261